#timestamp,LO_Frequency,Hit,StdDev 
1551819615.1,286046998.8,N
1551819616.0,286046998.8,N
1551819635.8,286046998.8,N
1551819655.6,286047000.7,N
1551819675.5,286046998.8,N
1551819695.3,286046998.1,N
1551819715.1,286047000.9,N
1551819735.9,286046998.4,N
1551819755.7,286047001.1,N
1551819775.6,286046997.1,N
1551819795.4,286046998.2,N
1551819815.2,286047001.1,N
1551819835.1,286046998.2,N
1551819836.0,286046998.2,N
1551819855.8,286047001.1,N
1551819875.6,286047000.7,N
1551819895.5,286047000.6,N
1551819915.3,286047002.1,N
1551819935.2,286047002.8,N
1551819955.9,286047002.1,N
1551819975.7,286047000.1,N
1551819995.6,286047000.5,N
1551820015.4,286047002.2,N
1551820035.2,286046998.3,N
1551820055.1,286047000.2,N
1551820056.0,286047000.2,N
1551820075.8,286047001.2,N
1551820095.7,286046998.3,N
1551820115.5,286046997.3,N
1551820135.3,286046997.6,N
1551820155.2,286046995.4,N
1551820175.0,286046997.6,N
1551820175.9,286046997.6,N
1551820195.8,286046995.0,N
1551820215.6,286046995.0,N
1551820235.4,286046999.0,N
1551820255.3,286047000.9,N
1551820275.1,286047000.5,N
1551820295.9,286047002.6,N
1551820315.7,286046999.8,N
1551820335.5,286047002.3,N
1551820355.4,286047002.8,N
1551820375.2,286046999.7,N
1551820395.0,286047002.6,N
1551820395.9,286047002.6,N
1551820415.8,286047002.1,N
1551820435.6,286047000.6,N
1551820455.5,286047000.5,N
1551820475.3,286047000.2,N
1551820495.1,286047001.0,N
1551820515.9,286046999.9,N
1551820535.7,286047001.2,N
1551820555.6,286046998.5,N
1551820575.1,286046998.2,N
1551820576.0,286046998.2,N
1551820595.8,286047000.8,N
1551820615.7,286047000.6,N
1551820635.5,286047001.1,N
1551820655.3,286047001.8,N
1551820675.2,286047002.7,N
1551820695.9,286046998.3,N
1551820715.7,286047000.4,N
1551820735.6,286046999.3,N
1551820755.4,286046996.9,N
1551820775.3,286046999.0,N
1551820795.1,286047000.3,N
1551820796.0,286047000.3,N
1551820815.8,286047000.4,N
1551820835.7,286047002.5,N
1551820855.5,286047002.1,N
1551820875.3,286047000.1,N
1551820895.2,286047002.8,N
1551820915.0,286047001.4,N
1551820915.9,286047001.4,N
1551820935.8,286047002.7,N
1551820955.6,286046998.1,N
1551820975.4,286046998.2,N
1551820995.3,286046998.4,N
1551821015.1,286047001.2,N
1551821035.8,286046998.4,N
1551821055.7,286046999.3,N
1551821075.5,286046999.3,N
1551821095.4,286046999.3,N
1551821115.2,286046998.1,N
1551821135.0,286047000.2,N
1551821135.9,286047000.2,N
1551821155.8,286046998.1,N
1551821175.6,286047000.4,N
1551821195.5,286046998.7,N
1551821215.3,286046998.6,N
1551821235.1,286046998.8,N
1551821255.9,286047000.3,N
1551821275.7,286047001.2,N
1551821295.5,286047000.1,N
1551821315.4,286046998.2,N
1551821335.2,286046999.3,N
1551821355.1,286046997.5,N
1551821356.0,286046997.5,N
1551821375.8,286046998.4,N
1551821395.6,286046999.9,N
1551821415.5,286047002.1,N
1551821435.3,286047001.6,N
1551821455.1,286047002.7,N
1551821475.9,286047001.7,N
1551821495.7,286046999.9,N
1551821515.6,286047000.0,N
1551821535.4,286046999.5,N
1551821555.2,286047001.2,N
1551821575.1,286047002.2,N
1551821576.0,286047002.2,N
1551821595.8,286047003.7,N
1551821615.7,286047001.4,N
1551821635.5,286047000.7,N
1551821655.3,286047001.4,N
1551821675.2,286047004.0,N
1551821695.0,286047003.8,N
1551821695.9,286047003.8,N
1551821715.7,286047001.4,N
1551821735.6,286047004.2,N
1551821755.4,286047001.3,N
1551821775.3,286047003.7,N
1551821795.1,286047003.2,N
1551821796.0,286047003.2,N
1551821815.8,286047001.9,N
1551821835.7,286047003.6,N
1551821855.5,286047002.6,N
1551821875.3,286047001.1,N
1551821895.2,286046999.5,N
1551821915.4,286046997.0,N
1551821935.3,286046998.9,N
1551821955.1,286046999.8,N
1551821975.8,286047000.9,N
1551821995.7,286046999.9,N
1551822015.5,286046998.5,N
1551822035.4,286047000.6,N
1551822055.2,286047002.3,N
1551822075.0,286047003.1,N
1551822075.9,286047003.1,N
1551822095.8,286047002.1,N
1551822115.6,286047002.2,N
1551822135.4,286047004.3,N
1551822155.3,286047001.6,N
1551822175.1,286047000.1,N
1551822195.6,286047000.3,N
1551822215.4,286047002.7,N
1551822235.3,286047002.3,N
1551822255.1,286047002.0,N
1551822275.9,286047004.2,N
1551822295.7,286047002.7,N
1551822315.5,286046998.1,N
1551822335.4,286046998.9,N
1551822355.2,286047002.4,N
1551822375.0,286047004.4,N
1551822376.0,286047004.4,N
1551822395.8,286047002.1,N
1551822415.6,286047001.3,N
1551822435.5,286047004.1,N
1551822455.3,286047000.0,N
1551822475.1,286047001.9,N
1551822495.9,286047002.2,N
1551822515.7,286047003.9,N
1551822535.6,286047001.5,N
1551822555.4,286047005.6,Y
1551822575.2,286047004.2,P
1551822595.1,286047004.3,P
1551822596.0,286047004.3,P
1551822615.8,286047001.5,N
1551822635.7,286046998.8,N
1551822655.5,286046996.9,N
1551822675.3,286047001.1,N
1551822695.2,286047000.2,N
1551822715.0,286046998.6,N
1551822715.9,286046998.6,N
1551822735.7,286046997.1,N
1551822755.6,286046998.0,N
1551822775.4,286046998.8,N
1551822795.3,286047000.6,N
1551822815.1,286047002.5,N
1551822816.0,286047002.5,N
1551822835.8,286047000.7,N
1551822855.7,286046999.4,N
1551822875.5,286046997.0,N
1551822895.3,286046996.9,N
1551822915.2,286046996.8,N
1551822935.0,286046997.9,N
1551822935.9,286046997.9,N
1551822955.8,286046996.5,N
1551822975.6,286046997.0,N
1551822995.4,286046999.6,N
1551823015.3,286046997.3,N
1551823035.1,286046995.4,N
1551823055.8,286046995.5,N
1551823075.7,286046996.1,N
1551823095.5,286046996.2,N
1551823115.4,286046995.4,N
1551823135.2,286047000.3,N
1551823155.0,286047001.9,N
1551823155.9,286047001.9,N
1551823175.8,286047000.3,N
1551823195.6,286047002.3,N
